This is the latest recevied weather packets stored in our database for station/object HP1COO-13. If no packets are shown the sender has not sent any weather packets the latest 10 day(s).
| Time | Temp. | Humidity | Pressure | Rain* | Wind** | Luminosity | Snow |
|---|---|---|---|---|---|---|---|
| 1777704031 | 26.11° C | 97% | 1007.5 hPa | 0 mm | - | - | - |
| 1777700417 | 26.11° C | 97% | 1007.7 hPa | 0 mm | - | - | - |
| 1777695036 | 26.11° C | 96% | 1008.1 hPa | 0 mm | - | - | - |
| 1777692024 | 26.67° C | 96% | 1008.4 hPa | 0 mm | - | - | - |
| 1777689032 | 26.67° C | 95% | 1008 hPa | 0 mm | - | - | - |
| 1777683028 | 26.67° C | 97% | 1006.4 hPa | 0.25 mm | - | - | - |
| 1777670434 | 30.56° C | 80% | 1004.2 hPa | 0 mm | - | - | - |
| 1777669230 | 30.56° C | 80% | 1004 hPa | 0 mm | - | - | - |
| 1777668626 | 31.11° C | 80% | 1003.9 hPa | 0 mm | - | - | - |
| 1777666239 | 31.11° C | 78% | 1004.4 hPa | 0 mm | - | - | - |
| 1777661420 | 30° C | 87% | 1005.7 hPa | 1.52 mm | - | - | - |
| 1777659633 | 30° C | 85% | 1005.9 hPa | 1.27 mm | - | - | - |
| 1777659030 | 32.22° C | 73% | 1006.2 hPa | 0 mm | - | - | - |
| 1777656019 | 32.22° C | 71% | 1007.2 hPa | 0 mm | - | - | - |
| 1777655417 | 32.22° C | 73% | 1007.4 hPa | 0 mm | - | - | - |
| 1777652425 | 31.67° C | 74% | 1007.5 hPa | 0 mm | - | - | - |
| 1777651221 | 31.67° C | 75% | 1007.8 hPa | 0 mm | - | - | - |
| 1777650017 | 31.11° C | 76% | 1007.8 hPa | 0 mm | - | - | - |
| 1777646423 | 31.11° C | 77% | 1008 hPa | 0 mm | - | - | - |
| 1777645218 | 30.56° C | 80% | 1008.1 hPa | 0 mm | - | - | - |
| 1777644034 | 30° C | 82% | 1008.1 hPa | 0 mm | - | - | - |
| 1777641624 | 28.89° C | 86% | 1007.6 hPa | 0 mm | - | - | - |
| 1777640421 | 27.78° C | 90% | 1007.2 hPa | 0 mm | - | - | - |
| 1777638032 | 26.67° C | 93% | 1006.7 hPa | 0 mm | - | - | - |
| 1777636826 | 26.67° C | 94% | 1006.3 hPa | 0 mm | - | - | - |
* Rain latest hour (hover to see other rain measurements)
** Current wind speed in m/s (hover to see current wind gust speed)